timestamp,wind_dir_avg,wind_spd_max_dir,wind_spd_avg,wind_spd_gust,battery_voltage,lat,long
2018-04-07 00:00:00+00:00,262.0,260.0,16.59,19.2,,47.59359,-54.27349
2018-04-07 00:10:00+00:00,276.0,276.0,13.86,16.95,,47.59359,-54.27349
2018-04-07 00:20:00+00:00,266.0,268.0,16.97,20.53,,47.59359,-54.27349
2018-04-07 00:30:00+00:00,274.0,275.0,14.08,16.8,,47.59359,-54.27349
2018-04-07 00:40:00+00:00,268.0,268.0,14.75,16.82,,47.59359,-54.27349
2018-04-07 00:50:00+00:00,268.0,262.0,14.04,16.45,,47.59359,-54.27349
2018-04-07 01:00:00+00:00,269.0,266.0,11.82,13.84,,47.59359,-54.27349
2018-04-07 01:10:00+00:00,276.0,281.0,11.89,13.69,,47.59359,-54.27349
2018-04-07 01:20:00+00:00,269.0,270.0,12.46,13.88,,47.59359,-54.27349
2018-04-07 01:30:00+00:00,269.0,269.0,12.2,13.83,,47.59359,-54.27349
2018-04-07 01:40:00+00:00,263.0,263.0,13.31,15.07,,47.59359,-54.27349
2018-04-07 01:50:00+00:00,268.0,268.0,12.85,14.67,,47.59359,-54.27349
2018-04-07 02:00:00+00:00,268.0,271.0,12.79,14.61,,47.59359,-54.27349
2018-04-07 02:10:00+00:00,269.0,268.0,10.64,12.3,,47.59359,-54.27349
2018-04-07 02:20:00+00:00,263.0,265.0,11.39,13.53,,47.59359,-54.27349
2018-04-07 02:30:00+00:00,264.0,266.0,10.95,13.21,,47.59359,-54.27349
2018-04-07 02:40:00+00:00,262.0,258.0,11.62,13.68,,47.59359,-54.27349
2018-04-07 02:50:00+00:00,264.0,262.0,13.82,16.27,,47.59359,-54.27349
2018-04-07 03:00:00+00:00,265.0,271.0,11.28,14.4,,47.59359,-54.27349
2018-04-07 03:10:00+00:00,262.0,269.0,11.78,13.93,,47.59359,-54.27349
2018-04-07 03:20:00+00:00,267.0,267.0,11.34,13.51,,47.59359,-54.27349
2018-04-07 03:30:00+00:00,262.0,266.0,11.14,12.47,,47.59359,-54.27349
2018-04-07 03:40:00+00:00,263.0,268.0,10.72,12.28,,47.59359,-54.27349
2018-04-07 03:50:00+00:00,267.0,272.0,11.26,13.73,,47.59359,-54.27349
2018-04-07 04:00:00+00:00,267.0,272.0,10.35,11.84,,47.59359,-54.27349
2018-04-07 04:10:00+00:00,265.0,271.0,10.84,12.48,,47.59359,-54.27349
2018-04-07 04:20:00+00:00,265.0,263.0,10.37,12.64,,47.59359,-54.27349
2018-04-07 04:30:00+00:00,259.0,258.0,10.22,11.58,,47.59359,-54.27349
2018-04-07 04:40:00+00:00,266.0,266.0,10.49,11.46,,47.59359,-54.27349
2018-04-07 04:50:00+00:00,259.0,261.0,9.57,11.55,,47.59359,-54.27349
2018-04-07 05:00:00+00:00,255.0,252.0,10.01,11.48,,47.59359,-54.27349
2018-04-07 05:10:00+00:00,258.0,257.0,10.32,12.73,,47.59359,-54.27349
2018-04-07 05:20:00+00:00,248.0,249.0,10.13,13.02,,47.59359,-54.27349
2018-04-07 05:30:00+00:00,248.0,253.0,9.07,11.04,,47.59359,-54.27349
2018-04-07 05:40:00+00:00,255.0,257.0,10.28,12.05,,47.59359,-54.27349
2018-04-07 05:50:00+00:00,244.0,248.0,8.21,9.1,,47.59359,-54.27349
2018-04-07 06:00:00+00:00,247.0,247.0,9.62,11.48,,47.59359,-54.27349
2018-04-07 06:10:00+00:00,246.0,254.0,9.36,11.2,,47.59359,-54.27349
2018-04-07 06:20:00+00:00,246.0,250.0,9.3,12.13,,47.59359,-54.27349
2018-04-07 06:30:00+00:00,244.0,243.0,8.81,10.34,,47.59359,-54.27349
2018-04-07 06:40:00+00:00,241.0,237.0,8.44,9.87,,47.59359,-54.27349
2018-04-07 06:50:00+00:00,235.0,238.0,8.89,9.89,,47.59359,-54.27349
2018-04-07 07:00:00+00:00,236.0,238.0,9.24,10.24,,47.59359,-54.27349
2018-04-07 07:10:00+00:00,232.0,232.0,8.45,9.8,,47.59359,-54.27349
2018-04-07 07:20:00+00:00,237.0,233.0,9.27,10.41,,47.59359,-54.27349
2018-04-07 07:30:00+00:00,243.0,240.0,8.9,10.39,,47.59359,-54.27349
2018-04-07 07:40:00+00:00,241.0,241.0,7.56,8.37,,47.59359,-54.27349
2018-04-07 07:50:00+00:00,238.0,242.0,6.62,7.4,,47.59359,-54.27349
2018-04-07 08:00:00+00:00,237.0,231.0,7.28,8.41,,47.59359,-54.27349
2018-04-07 08:10:00+00:00,240.0,238.0,8.25,9.45,,47.59359,-54.27349
2018-04-07 08:20:00+00:00,245.0,234.0,7.98,9.3,,47.59359,-54.27349
2018-04-07 08:30:00+00:00,235.0,230.0,8.83,10.07,,47.59359,-54.27349
2018-04-07 08:40:00+00:00,234.0,235.0,8.19,9.29,,47.59359,-54.27349
2018-04-07 08:50:00+00:00,237.0,245.0,11.97,15.05,,47.59359,-54.27349
2018-04-07 09:00:00+00:00,233.0,237.0,13.05,16.34,,47.59359,-54.27349
2018-04-07 09:10:00+00:00,223.0,222.0,10.79,12.07,,47.59359,-54.27349
2018-04-07 09:20:00+00:00,224.0,225.0,9.01,11.01,,47.59359,-54.27349
2018-04-07 09:30:00+00:00,224.0,231.0,10.94,12.59,,47.59359,-54.27349
2018-04-07 09:40:00+00:00,220.0,221.0,9.46,10.64,,47.59359,-54.27349
2018-04-07 09:50:00+00:00,213.0,210.0,9.53,10.17,,47.59359,-54.27349
2018-04-07 10:00:00+00:00,212.0,216.0,9.84,10.57,,47.59359,-54.27349
2018-04-07 10:10:00+00:00,206.0,204.0,9.37,10.99,,47.59359,-54.27349
2018-04-07 10:20:00+00:00,207.0,205.0,9.05,10.03,,47.59359,-54.27349
2018-04-07 10:30:00+00:00,196.0,198.0,8.52,9.63,,47.59359,-54.27349
2018-04-07 10:40:00+00:00,207.0,214.0,10.11,11.08,,47.59359,-54.27349
2018-04-07 10:50:00+00:00,200.0,197.0,8.99,9.97,,47.59359,-54.27349
2018-04-07 11:00:00+00:00,192.0,195.0,9.6,10.64,,47.59359,-54.27349
2018-04-07 11:10:00+00:00,201.0,202.0,11.39,12.89,,47.59359,-54.27349
2018-04-07 11:20:00+00:00,199.0,197.0,10.98,12.46,,47.59359,-54.27349
2018-04-07 11:30:00+00:00,210.0,210.0,12.26,14.03,,47.59359,-54.27349
2018-04-07 11:40:00+00:00,197.0,196.0,11.65,15.57,,47.59359,-54.27349
2018-04-07 11:50:00+00:00,207.0,207.0,10.05,13.71,,47.59359,-54.27349
2018-04-07 12:00:00+00:00,197.0,195.0,9.51,11.46,,47.59359,-54.27349
2018-04-07 12:10:00+00:00,204.0,206.0,9.23,10.48,,47.59359,-54.27349
2018-04-07 12:20:00+00:00,186.0,184.0,7.48,8.89,,47.59359,-54.27349
2018-04-07 12:30:00+00:00,186.0,186.0,8.9,9.69,,47.59359,-54.27349
2018-04-07 12:40:00+00:00,180.0,176.0,8.35,9.23,,47.59359,-54.27349
2018-04-07 12:50:00+00:00,176.0,174.0,7.1,7.68,,47.59359,-54.27349
2018-04-07 13:00:00+00:00,168.0,166.0,6.46,7.28,,47.59359,-54.27349
2018-04-07 13:10:00+00:00,156.0,157.0,5.37,5.88,,47.59359,-54.27349
2018-04-07 13:20:00+00:00,135.0,134.0,4.96,5.54,,47.59359,-54.27349
2018-04-07 13:30:00+00:00,139.0,127.0,5.93,7.2,,47.59359,-54.27349
2018-04-07 13:40:00+00:00,136.0,141.0,5.66,6.94,,47.59359,-54.27349
2018-04-07 13:50:00+00:00,138.0,137.0,5.26,6.28,,47.59359,-54.27349
2018-04-07 14:00:00+00:00,141.0,139.0,4.95,6.23,,47.59359,-54.27349
2018-04-07 14:10:00+00:00,137.0,138.0,3.98,4.7,,47.59359,-54.27349
2018-04-07 14:20:00+00:00,130.0,129.0,3.3,4.09,,47.59359,-54.27349
2018-04-07 14:30:00+00:00,102.0,91.0,1.68,2.34,,47.59359,-54.27349
2018-04-07 14:40:00+00:00,102.0,89.0,1.69,2.19,,47.59359,-54.27349
2018-04-07 14:50:00+00:00,108.0,137.0,2.37,3.56,,47.59359,-54.27349
2018-04-07 15:00:00+00:00,100.0,120.0,2.1,3.21,,47.59359,-54.27349
2018-04-07 15:10:00+00:00,88.0,80.0,2.44,3.36,,47.59359,-54.27349
2018-04-07 15:20:00+00:00,71.0,72.0,3.03,3.38,,47.59359,-54.27349
2018-04-07 15:30:00+00:00,64.0,59.0,3.27,3.74,,47.59359,-54.27349
2018-04-07 15:40:00+00:00,81.0,76.0,2.86,3.34,,47.59359,-54.27349
2018-04-07 15:50:00+00:00,92.0,94.0,2.49,2.91,,47.59359,-54.27349
2018-04-07 16:00:00+00:00,74.0,63.0,3.19,3.57,,47.59359,-54.27349
2018-04-07 16:10:00+00:00,75.0,73.0,2.91,3.19,,47.59359,-54.27349
2018-04-07 16:20:00+00:00,73.0,79.0,2.6,2.95,,47.59359,-54.27349
2018-04-07 16:30:00+00:00,72.0,69.0,1.78,2.1,,47.59359,-54.27349
2018-04-07 16:40:00+00:00,54.0,55.0,2.85,3.05,,47.59359,-54.27349
2018-04-07 16:50:00+00:00,49.0,50.0,3.09,3.41,,47.59359,-54.27349
2018-04-07 17:00:00+00:00,53.0,54.0,2.67,2.93,,47.59359,-54.27349
2018-04-07 17:10:00+00:00,60.0,63.0,2.87,3.32,,47.59359,-54.27349
2018-04-07 17:20:00+00:00,55.0,56.0,2.09,2.29,,47.59359,-54.27349
2018-04-07 17:30:00+00:00,55.0,52.0,1.86,2.28,,47.59359,-54.27349
2018-04-07 17:40:00+00:00,74.0,74.0,1.66,1.96,,47.59359,-54.27349
2018-04-07 17:50:00+00:00,63.0,59.0,1.0,1.36,,47.59359,-54.27349
2018-04-07 18:00:00+00:00,54.0,66.0,0.29,0.57,,47.59359,-54.27349
2018-04-07 18:10:00+00:00,77.0,62.0,0.85,1.13,,47.59359,-54.27349
2018-04-07 18:20:00+00:00,48.0,43.0,0.77,0.87,,47.59359,-54.27349
2018-04-07 18:30:00+00:00,158.0,159.0,0.93,1.09,,47.59359,-54.27349
2018-04-07 18:40:00+00:00,177.0,183.0,1.57,1.81,,47.59359,-54.27349
2018-04-07 18:50:00+00:00,215.0,223.0,1.95,2.88,,47.59359,-54.27349
2018-04-07 19:00:00+00:00,226.0,230.0,2.41,2.59,,47.59359,-54.27349
2018-04-07 19:10:00+00:00,216.0,216.0,2.79,3.01,,47.59359,-54.27349
2018-04-07 19:20:00+00:00,216.0,214.0,3.21,3.4,,47.59359,-54.27349
2018-04-07 19:30:00+00:00,225.0,224.0,4.04,4.67,,47.59359,-54.27349
2018-04-07 19:40:00+00:00,228.0,227.0,4.91,5.35,,47.59359,-54.27349
2018-04-07 19:50:00+00:00,234.0,230.0,4.44,4.97,,47.59359,-54.27349
2018-04-07 20:00:00+00:00,228.0,229.0,4.68,5.12,,47.59359,-54.27349
2018-04-07 20:10:00+00:00,224.0,225.0,5.11,6.37,,47.59359,-54.27349
2018-04-07 20:20:00+00:00,223.0,224.0,4.68,5.18,,47.59359,-54.27349
2018-04-07 20:30:00+00:00,229.0,230.0,5.06,5.73,,47.59359,-54.27349
2018-04-07 20:40:00+00:00,232.0,232.0,5.78,6.56,,47.59359,-54.27349
2018-04-07 20:50:00+00:00,230.0,229.0,5.51,6.01,,47.59359,-54.27349
2018-04-07 21:00:00+00:00,230.0,230.0,6.24,6.68,,47.59359,-54.27349
2018-04-07 21:10:00+00:00,232.0,232.0,5.39,5.86,,47.59359,-54.27349
2018-04-07 21:20:00+00:00,234.0,238.0,5.87,7.02,,47.59359,-54.27349
2018-04-07 21:30:00+00:00,245.0,242.0,5.81,6.82,,47.59359,-54.27349
2018-04-07 21:40:00+00:00,245.0,245.0,5.63,7.17,,47.59359,-54.27349
2018-04-07 21:50:00+00:00,243.0,251.0,5.52,6.43,,47.59359,-54.27349
2018-04-07 22:00:00+00:00,245.0,242.0,5.91,6.71,,47.59359,-54.27349
2018-04-07 22:10:00+00:00,242.0,242.0,5.98,7.04,,47.59359,-54.27349
2018-04-07 22:20:00+00:00,241.0,241.0,5.83,6.8,,47.59359,-54.27349
2018-04-07 22:30:00+00:00,242.0,247.0,6.31,7.16,,47.59359,-54.27349
2018-04-07 22:40:00+00:00,240.0,239.0,6.58,7.68,,47.59359,-54.27349
2018-04-07 22:50:00+00:00,233.0,234.0,6.07,7.02,,47.59359,-54.27349
2018-04-07 23:00:00+00:00,232.0,238.0,5.84,6.88,,47.59359,-54.27349
2018-04-07 23:10:00+00:00,238.0,237.0,6.29,7.4,,47.59359,-54.27349
2018-04-07 23:20:00+00:00,244.0,247.0,7.42,8.41,,47.59359,-54.27349
2018-04-07 23:30:00+00:00,253.0,259.0,6.72,7.73,,47.59359,-54.27349
2018-04-07 23:40:00+00:00,250.0,254.0,6.24,7.52,,47.59359,-54.27349
2018-04-07 23:50:00+00:00,245.0,247.0,5.71,6.48,,47.59359,-54.27349
